This demonstration page uses our WeatherBlox Daily Observations layout. Learn more.

Left ArrowRight Arrow

Hourly Observations for June 2, 2022

Temp ( °F °C ) Dew Point ( °F °C ) Humidity (%) Winds ( mph kmh ) Pressure ( in mb ) Visibility ( mi km ) Precip ( " mm )
12:15 am 00:15 Clear 75 24 70 21 83 83 Calm 29.82 1010 N/A 0.00 0.00
12:35 am 00:35 Clear 75 24 70 21 83 83 Calm 29.81 1009 N/A 0.00 0.00
12:55 am 00:55 Clear 75 24 70 21 83 83 Calm 29.81 1009 N/A 0.00 0.00
1:15 am 01:15 Clear 73 23 70 21 89 89 WSW 5 7 29.81 1009 N/A 0.00 0.00
1:35 am 01:35 Clear 73 23 70 21 89 89 WSW 3 6 29.80 1009 N/A 0.00 0.00
1:55 am 01:55 Clear 73 23 70 21 89 89 W 5 7 29.80 1009 N/A 0.00 0.00
2:15 am 02:15 Clear 73 23 68 20 83 83 W 5 7 29.79 1009 N/A 0.00 0.00
2:35 am 02:35 Clear 73 23 68 20 83 83 SW 3 6 29.79 1009 N/A 0.00 0.00
2:55 am 02:55 Clear 73 23 68 20 83 83 Calm 29.79 1009 N/A 0.00 0.00
3:15 am 03:15 Clear 73 23 68 20 83 83 Calm 29.79 1009 10 16 0.00 0.00
3:35 am 03:35 Clear 73 23 68 20 83 83 N 5 7 29.80 1009 10 16 0.00 0.00
3:55 am 03:55 Partly Cloudy 75 24 68 20 78 78 N 7 11 29.80 1009 N/A 0.00 0.00
4:15 am 04:15 Partly Cloudy 72 22 68 20 88 88 NW 5 7 29.79 1009 10 16 0.00 0.00
4:35 am 04:35 Clear 73 23 68 20 83 83 Calm 29.79 1009 N/A 0.00 0.00
4:55 am 04:55 Clear 73 23 68 20 83 83 Calm 29.79 1009 N/A 0.00 0.00
5:15 am 05:15 undefined 72 22 68 20 88 88 NW 3 6 29.80 1009 N/A 0.00 0.00
5:35 am 05:35 Partly Cloudy 73 23 68 20 83 83 N 6 9 29.80 1009 N/A 0.00 0.00
5:55 am 05:55 Sunny 72 22 68 20 88 88 NNW 5 7 29.80 1009 N/A 0.00 0.00
6:15 am 06:15 undefined 72 22 68 20 88 88 Calm 29.81 1009 N/A 0.00 0.00
6:35 am 06:35 Sunny 72 22 68 20 88 88 Calm 29.82 1010 N/A 0.00 0.00
6:55 am 06:55 Sunny 73 23 68 20 83 83 ENE 5 7 29.82 1010 10 16 0.00 0.00
7:15 am 07:15 undefined 72 22 68 20 88 88 E 5 7 29.81 1009 N/A 0.00 0.00
7:35 am 07:35 Sunny 73 23 68 20 83 83 Calm 29.82 1010 10 16 0.00 0.00
7:55 am 07:55 Sunny 73 23 68 20 83 83 Calm 29.82 1010 N/A 0.00 0.00
8:15 am 08:15 Sunny 77 25 68 20 74 74 Calm 29.80 1009 10 16 0.00 0.00
8:35 am 08:35 Partly Cloudy 77 25 68 20 74 74 Calm 29.81 1010 10 16 0.00 0.00
8:55 am 08:55 Partly Cloudy 77 25 68 20 74 74 Calm 29.80 1009 10 16 0.00 0.00
9:15 am 09:15 Partly Cloudy 79 26 68 20 70 70 Calm 29.79 1009 10 16 0.00 0.00
9:35 am 09:35 Partly Cloudy 79 26 64 18 61 61 Calm 29.78 1009 10 16 0.00 0.00
9:55 am 09:55 Sunny 81 27 68 20 66 66 Calm 29.78 1009 N/A 0.00 0.00
10:15 am 10:15 Sunny 82 28 70 21 66 66 Calm 29.78 1008 10 16 0.00 0.00
10:35 am 10:35 Sunny 82 28 70 21 66 66 Calm 29.78 1008 10 16 0.00 0.00
10:55 am 10:55 Sunny 84 29 70 21 62 62 W 6 9 29.78 1008 10 16 0.00 0.00
11:15 am 11:15 Sunny 86 30 70 21 59 59 W 8 13 29.77 1008 10 16 0.00 0.00
11:35 am 11:35 Sunny 84 29 70 21 62 62 Calm 29.76 1008 10 16 0.00 0.00
11:55 am 11:55 Partly Cloudy 86 30 72 22 62 62 W 7 11 29.76 1008 10 16 0.00 0.00
12:15 pm 12:15 Mostly Cloudy 86 30 70 21 59 59 WNW 9 15 29.75 1007 10 16 0.00 0.00
12:35 pm 12:35 Mostly Cloudy 86 30 70 21 59 59 NW 7 11 29.75 1007 10 16 0.00 0.00
12:55 pm 12:55 Mostly Cloudy 86 30 70 21 59 59 WNW 5 7 29.75 1007 10 16 0.00 0.00
1:15 pm 13:15 Partly Cloudy 86 30 70 21 59 59 NW 9 15 29.74 1007 10 16 0.00 0.00
1:35 pm 13:35 Partly Cloudy 88 31 68 20 52 52 W 3 6 29.73 1007 10 16 0.00 0.00
1:55 pm 13:55 Partly Cloudy 88 31 70 21 55 55 WNW 7 11 29.73 1007 10 16 0.00 0.00
2:15 pm 14:15 Partly Cloudy 88 31 70 21 55 55 NNW 7 11 29.73 1007 10 16 0.00 0.00
2:35 pm 14:35 Partly Cloudy 86 30 70 21 59 59 N 6 9 29.71 1006 10 16 0.00 0.00
2:55 pm 14:55 Mostly Cloudy 86 30 70 21 59 59 N 9 15 29.70 1006 10 16 0.00 0.00
3:15 pm 15:15 Mostly Cloudy 81 27 72 22 74 74 NNE 9 15 29.70 1006 10 16 0.00 0.00
3:35 pm 15:35 Partly Cloudy 82 28 70 21 66 66 NE 10 17 29.67 1005 N/A 0.00 0.00
3:55 pm 15:55 Partly Cloudy with Thunderstorms 72 22 70 21 94 94 NNW 12 19 29.73 1007 N/A 0.12 3.05
4:15 pm 16:15 Partly Cloudy 73 23 70 21 89 89 NNE 8 13 29.71 1006 10 16 0.00 0.00
4:35 pm 16:35 Mostly Cloudy with Thunderstorms 73 23 70 21 89 89 Calm 29.72 1006 10 16 0.00 0.00
4:55 pm 16:55 Cloudy with Light Rain 73 23 72 22 94 94 Calm 29.73 1007 4 6 0.10 2.54
5:15 pm 17:15 Cloudy 73 23 72 22 94 94 SE 6 9 29.72 1006 10 16 0.00 0.00
5:35 pm 17:35 Cloudy with Nearby Thunderstorms 73 23 72 22 94 94 SSW 14 22 29.74 1007 10 16 0.00 0.00
5:55 pm 17:55 Cloudy 77 25 72 22 83 83 Calm 29.71 1006 10 16 0.00 0.00
6:15 pm 18:15 Mostly Cloudy 77 25 72 22 83 83 Calm 29.70 1006 10 16 0.00 0.00
6:35 pm 18:35 Mostly Cloudy 77 25 72 22 83 83 Calm 29.70 1006 10 16 0.00 0.00
6:55 pm 18:55 Partly Cloudy 79 26 72 22 79 79 Calm 29.71 1006 10 16 0.00 0.00
7:15 pm 19:15 Sunny 79 26 72 22 79 79 Calm 29.72 1007 10 16 0.00 0.00
7:35 pm 19:35 Partly Cloudy 77 25 72 22 83 83 Calm 29.72 1007 10 16 0.00 0.00
7:55 pm 19:55 Partly Cloudy 77 25 72 22 83 83 Calm 29.72 1007 10 16 0.00 0.00
8:15 pm 20:15 Partly Cloudy 77 25 73 23 89 89 S 5 7 29.73 1007 10 16 0.00 0.00
8:35 pm 20:35 Mostly Cloudy with Light Rain 75 24 73 23 94 94 SW 5 7 29.75 1007 10 16 0.00 0.00
8:55 pm 20:55 Mostly Cloudy 73 23 73 23 100 100 WNW 3 6 29.76 1008 10 16 0.00 0.00
9:15 pm 21:15 Mostly Cloudy 73 23 73 23 100 100 Calm 29.75 1007 10 16 0.00 0.00
9:35 pm 21:35 Mostly Cloudy with Light Rain 73 23 73 23 100 100 Calm 29.76 1008 10 16 0.00 0.00
9:55 pm 21:55 Cloudy with Light Rain 73 23 72 22 94 94 NNW 5 7 29.77 1008 7 11 0.02 0.51
10:15 pm 22:15 Cloudy with Rain 72 22 72 22 100 100 W 6 9 29.77 1008 7 11 0.02 0.51
10:35 pm 22:35 Cloudy with Rain 72 22 72 22 100 100 WSW 5 7 29.77 1008 10 16 0.04 1.02
10:55 pm 22:55 Cloudy 72 22 72 22 100 100 W 5 7 29.78 1008 10 16 0.05 1.27
11:15 pm 23:15 Cloudy 72 22 72 22 100 100 WSW 3 6 29.78 1008 10 16 0.00 0.00
11:35 pm 23:35 Cloudy 72 22 70 21 94 94 WSW 3 6 29.77 1008 10 16 0.00 0.00
11:55 pm 23:55 Partly Cloudy 70 21 70 21 100 100 W 3 6 29.78 1008 10 16 0.00 0.00

Powered by AerisWeather